CAPE
0 0 0 0 0 0 0 0 0 0 0 0 0 0 0 0 0 0 0 0 0 0 0 112 19 1 0 77 213 370 381 505 1179 2539 1602 1423 1433 1228 876 1122 805 1008 1387 1600
0 0 0 0 0 0 0 0 0 0 0 0 0 0 0 0 0 0 0 0 0 0 0 37 122 1 9 44 53 87 488 642 299 2051 2482 1298 1394 1723 1033 756 400 659 1521 1188
0 0 0 0 0 0 0 0 0 0 0 1 1 0 0 0 0 0 0 4 0 2 0 0 5 31 2 90 161 10 138 230 490 462 545 1539 2047 2241 1927 2424 1480 1095 406 898
0 0 0 1 0 0 0 0 0 0 0 0 3 0 22 0 6 0 0 0 0 0 7 4 0 0 2 0 31 191 59 89 59 267 572 913 749 587 421 143 2342 2396 1785 707
0 0 5 20 0 1 0 1 0 0 7 19 1 5 0 0 0 2 0 0 0 0 0 0 0 0 0 0 0 8 129 258 262 85 305 448 626 361 416 1210 1277 1321 2501 1793
0 0 0 3 24 1 2 11 5 0 0 0 0 37 0 6 15 22 30 0 0 0 0 0 0 0 0 0 0 0 25 344 274 458 291 415 692 658 517 462 816 1051 1725 1876
46 42 66 92 37 34 7 25 16 50 58 15 0 16 1 28 35 12 10 0 0 0 0 3 5 0 6 2 13 17 172 193 281 243 217 467 486 784 714 619 237 364 285 1106
80 70 141 40 1 102 158 54 118 48 84 44 58 12 26 13 0 0 0 0 0 0 0 13 19 17 5 33 61 18 141 118 213 255 176 452 202 306 270 292 139 144 101 174
103 67 73 38 39 93 95 35 40 192 154 105 4 0 3 1 14 0 0 0 0 0 0 1 0 3 23 29 18 51 127 131 290 350 786 721 839 763 263 409 495 204 464 449
53 120 43 69 133 104 46 15 118 41 95 0 14 24 0 16 45 37 0 0 0 2 0 0 0 10 31 28 245 254 147 149 144 101 330 398 785 990 751 789 781 547 582 724
73 164 87 52 46 163 106 144 200 241 313 91 19 16 78 2 38 26 1 2 1 11 4 0 8 24 32 39 12 234 269 180 222 299 216 240 408 500 751 872 944 993 969 1171
58 16 116 14 33 130 186 189 255 86 99 203 192 31 110 0 1 92 0 5 3 0 2 15 15 8 22 31 22 28 165 35 13 161 181 361 476 358 461 515 541 1006 1062 1018
55 57 25 2 111 66 2 21 15 26 43 0 28 30 85 42 80 17 9 53 20 65 49 20 9 7 11 25 32 16 22 1 19 41 26 39 124 560 605 583 611 517 416 716
4 0 14 14 18 60 22 5 1 0 55 101 59 32 44 81 1 3 23 77 10 58 144 87 107 14 12 14 9 4 4 8 11 8 6 30 133 93 0 39 89 192 286 283
10 19 29 23 25 29 25 19 8 19 3 64 19 34 42 126 17 24 89 52 0 6 2 110 217 135 79 46 44 38 33 12 4 4 0 16 21 11 0 0 0 0 38 251
56 42 38 21 37 31 39 32 59 29 23 16 18 29 51 144 93 21 14 124 25 166 188 116 110 119 109 175 109 59 69 37 10 2 0 0 0 0 0 0 0 0 19 121
15 30 60 34 58 22 4 111 42 28 56 10 14 21 189 211 98 151 196 88 188 266 25 28 74 171 262 89 25 0 0 0 0 0 0 0 1 1 0 0 0 0 12 195
10 27 52 20 31 0 8 26 41 16 3 34 7 1 22 49 28 1 19 116 44 114 24 79 84 72 63 18 0 0 0 0 0 0 0 0 0 6 5 0 0 0 40 318
16 45 128 53 104 30 30 51 184 192 148 204 267 228 64 32 43 123 314 14 6 15 10 5 12 1 0 4 2 0 0 0 0 4 1 2 4 18 7 13 0 77 168 358
25 49 61 49 82 3 99 221 132 23 108 229 137 124 88 34 125 20 88 32 1 3 2 0 0 0 0 2 2 0 0 0 0 18 33 33 30 12 28 47 31 213 329 841
30 5 12 48 67 21 188 189 170 64 223 177 90 13 22 19 30 39 3 0 2 0 4 3 7 22 20 51 29 23 35 5 1 4 21 19 29 18 7 108 359 749 791 928
206 318 144 83 78 95 168 27 94 84 103 102 22 24 0 0 0 0 21 25 24 13 11 16 25 22 19 26 3 0 0 4 2 4 27 26 41 35 16 291 651 758 777 770
195 112 43 159 268 327 75 71 76 48 37 33 16 17 29 0 0 29 0 0 0 0 0 0 0 0 0 0 0 0 1 2 2 7 44 53 46 46 136 455 628 794 736 651
33 52 138 13 51 32 0 5 0 0 0 0 32 32 85 0 0 0 0 0 0 0 0 0 0 0 0 0 0 1 7 6 2 28 10 14 128 297 404 552 638 680 719 543
0 5 0 0 0 0 0 0 0 0 0 0 0 0 0 0 0 0 0 0 0 0 0 0 0 0 0 0 0 7 5 4 23 40 35 64 199 329 369 512 375 552 492 797
0 0 0 0 0 0 0 0 0 0 0 0 0 0 0 0 0 0 0 0 0 0 0 1 0 0 0 1 0 0 2 2 3 47 21 58 86 259 254 142 248 103 533 1053
CIN
-0 -0 -0 -0 -0 -0 -0 -0 -0 -0 -0 -0 -0 -0 -0 -0 -0 -0 -0 -0 -0 -0 -0 -13 -40 -7 -0 -227 -186 -168 -244 -323 -143 -14 -75 -145 -186 -196 -178 -151 -208 -138 -133 -150
-0 -0 -0 -0 -0 -0 -0 -0 -0 -0 -0 -0 -0 -0 -0 -0 -0 -0 -0 -0 -0 -0 -0 -19 -13 -15 -154 -219 -247 -280 -134 -194 -305 -64 -12 -117 -138 -94 -62 -57 -206 -272 -130 -161
-0 -0 -0 -0 -0 -0 -0 -0 -0 -0 -0 -0 -0 -0 -0 -0 -0 -0 -0 -2 -0 -1 -0 -0 -17 -21 -14 -133 -153 -269 -181 -180 -266 -169 -213 -75 -40 -52 -71 -64 -74 -95 -205 -180
-0 -0 -0 -0 -0 -0 -0 -0 -0 -0 -0 -0 -1 -0 -0 -0 -3 -0 -0 -0 -0 -0 -2 -13 -0 -0 -4 -0 -84 -72 -238 -267 -341 -246 -130 -79 -91 -97 -124 -131 -56 -53 -26 -80
-0 -0 -0 -1 -0 -0 -0 -1 -0 -0 -1 -1 -0 -0 -0 -0 -0 -2 -0 -0 -0 -0 -0 -0 -0 -0 -0 -0 -0 -119 -120 -98 -121 -184 -198 -168 -124 -138 -184 -80 -94 -139 -105 -39
-0 -0 -0 -15 -1 -1 -0 -0 -1 -0 -0 -0 -0 -0 -0 -0 -0 -0 -2 -0 -0 -0 -0 -0 -1 -0 -0 -0 -0 -0 -108 -27 -70 -71 -150 -217 -89 -125 -171 -176 -135 -128 -57 -60
-1 -7 -2 -0 -20 -9 -2 -0 -0 -0 -0 -0 -1 -5 -35 -1 -0 -3 -20 -0 -0 -0 -0 -4 -1 -0 -15 -13 -12 -54 -43 -27 -38 -60 -84 -63 -124 -100 -113 -137 -243 -180 -214 -116
-2 -32 -11 -34 -8 -2 -9 -15 -0 -0 -0 -0 -3 -19 -12 -64 -0 -0 -0 -0 -0 -0 -0 -6 -0 -4 -0 -3 -12 -5 -36 -25 -15 -27 -53 -32 -100 -128 -166 -175 -258 -254 -275 -251
-0 -0 -4 -122 -105 -0 -16 -13 -3 -2 -1 -0 -34 -0 -1 -11 -17 -0 -0 -0 -0 -0 -0 -5 -0 -1 -0 -1 -2 -1 -24 -12 -4 -7 -11 -8 -8 -12 -71 -72 -76 -175 -191 -167
-2 -0 -2 -5 -30 -44 -58 -88 -20 -18 -3 -0 -12 -6 -0 -6 -7 -4 -0 -0 -0 -5 -0 -0 -0 -2 -2 -3 -4 -7 -7 -9 -19 -7 -10 -7 -16 -13 -22 -25 -23 -47 -53 -77
-1 -1 -1 -22 -27 -4 -7 -3 -0 -6 -0 -0 -18 -24 -33 -43 -12 -26 -1 -1 -0 -1 -2 -0 -1 -1 -2 -2 -3 -4 -7 -5 -9 -23 -17 -11 -7 -6 -7 -7 -5 -11 -16 -14
-32 -1 -0 -1 -11 -1 -0 -0 -8 -26 -1 -1 -1 -38 -4 -4 -2 -0 -8 -8 -8 -0 -22 -2 -3 -4 -2 -2 -2 -2 -4 -2 -9 -5 -17 -12 -9 -8 -12 -16 -14 -7 -4 -7
-5 -0 -0 -0 -0 -32 -4 -10 -7 -19 -11 -0 -0 -78 -27 -46 -19 -27 -10 -0 -5 -1 -0 -2 -1 -4 -2 -1 -2 -1 -3 -0 -5 -8 -7 -42 -53 -12 -11 -12 -10 -9 -13 -4
-6 -0 -0 -0 -0 -1 -7 -8 -22 -0 -0 -1 -0 -14 -7 -23 -12 -64 -19 -37 -48 -45 -5 -0 -3 -10 -19 -18 -2 -2 -2 -3 -4 -3 -5 -9 -33 -59 -0 -58 -45 -40 -28 -18
-1 -0 -0 -0 -0 -0 -0 -0 -5 -35 -2 -12 -39 -0 -5 -7 -80 -32 -22 -37 -16 -28 -7 -0 -9 -1 -0 -3 -4 -4 -3 -1 -4 -3 -1 -14 -18 -15 -0 -0 -0 -0 -133 -43
-0 -0 -0 -0 -0 -1 -0 -0 -1 -0 -0 -1 -0 -1 -1 -0 -1 -2 -20 -37 -25 -40 -53 -13 -6 -15 -2 -2 -10 -6 -24 -10 -8 -13 -0 -0 -0 -0 -0 -0 -0 -0 -52 -105
-0 -0 -0 -2 -0 -1 -0 -14 -1 -0 -2 -11 -7 -21 -46 -39 -0 -9 -43 -64 -39 -17 -168 -2 -3 -9 -14 -27 -41 -0 -0 -0 -0 -0 -0 -0 -0 -0 -0 -0 -0 -0 -103 -64
-0 -0 -0 -0 -0 -0 -1 -10 -1 -53 -6 -10 -11 -13 -42 -103 -65 -41 -61 -127 -86 -51 -36 -2 -14 -30 -68 -79 -0 -0 -0 -0 -0 -0 -0 -0 -0 -0 -0 -0 -0 -0 -50 -29
-0 -0 -0 -0 -0 -10 -45 -68 -8 -0 -0 -10 -2 -0 -8 -10 -13 -7 -15 -69 -6 -0 -35 -51 -47 -16 -0 -30 -7 -0 -0 -0 -0 -11 -9 -14 -2 -0 -5 -2 -0 -119 -28 -14
-1 -0 -0 -0 -0 -0 -2 -1 -13 -48 -0 -1 -0 -2 -29 -44 -11 -65 -23 -96 -11 -67 -53 -0 -0 -0 -0 -5 -9 -1 -0 -0 -0 -0 -0 -0 -3 -7 -13 -4 -79 -42 -12 -7
-3 -2 -2 -0 -0 -6 -7 -0 -17 -0 -0 -10 -14 -23 -10 -0 -11 -46 -0 -0 -0 -0 -0 -0 -1 -0 -6 -4 -6 -0 -0 -1 -15 -7 -1 -11 -20 -21 -30 -47 -14 -8 -5 -2
-2 -0 -0 -0 -0 -0 -0 -5 -0 -0 -0 -0 -0 -0 -0 -0 -0 -0 -0 -0 -0 -0 -0 -0 -0 -2 -6 -2 -0 -0 -0 -0 -0 -0 -0 -4 -6 -6 -49 -42 -3 -7 -4 -0
-0 -1 -0 -0 -0 -4 -0 -1 -1 -1 -0 -0 -0 -0 -0 -0 -0 -0 -0 -0 -0 -0 -0 -0 -0 -0 -0 -0 -0 -0 -0 -0 -0 -0 -0 -0 -11 -8 -68 -8 -1 -3 -2 -0
-4 -0 -0 -0 -2 -1 -0 -7 -0 -0 -0 -0 -0 -0 -0 -0 -0 -0 -0 -0 -0 -0 -0 -0 -0 -0 -0 -0 -0 -0 -0 -0 -0 -0 -2 -34 -1 -0 -1 -2 -2 -1 -0 -2
-0 -0 -0 -0 -0 -0 -0 -0 -0 -0 -0 -0 -0 -0 -0 -0 -0 -0 -0 -0 -0 -0 -0 -0 -0 -0 -0 -0 -0 -1 -0 -0 -1 -1 -1 -0 -2 -0 -1 -2 -5 -0 -5 -1
-0 -0 -0 -0 -0 -0 -0 -0 -0 -0 -0 -0 -0 -0 -0 -0 -0 -0 -0 -0 -0 -0 -0 -0 -0 -0 -0 -0 -0 -0 -0 -0 -0 -0 -22 -0 -0 -3 -6 -8 -15 -87 -0 -0
Wind_Speed
nan nan nan nan nan nan nan nan nan nan nan nan nan nan nan nan nan nan nan nan nan nan nan 36 nan nan nan nan 61 69 74 77 77 72 74 70 70 69 66 57 50 49 54 52
nan nan nan nan nan nan nan nan nan nan nan nan nan nan nan nan nan nan nan nan nan nan nan nan 56 nan nan nan nan nan 75 78 79 80 78 76 69 74 72 62 53 62 53 54
nan nan nan nan nan nan nan nan nan nan nan nan nan nan nan nan nan nan nan nan nan nan nan nan nan nan nan nan 57 nan 76 77 91 84 89 81 84 83 69 70 63 62 49 48
nan nan nan nan nan nan nan nan nan nan nan nan nan nan nan nan nan nan nan nan nan nan nan nan nan nan nan nan nan 52 nan nan nan 77 88 82 80 74 62 52 73 65 49 39
nan nan nan nan nan nan nan nan nan nan nan nan nan nan nan nan nan nan nan nan nan nan nan nan nan nan nan nan nan nan 49 79 84 nan 74 94 87 79 74 68 58 55 63 49
nan nan nan nan nan nan nan nan nan nan nan nan nan nan nan nan nan nan nan nan nan nan nan nan nan nan nan nan nan nan nan 48 73 85 78 72 67 85 77 78 73 59 54 71
nan nan nan nan nan nan nan nan nan nan nan nan nan nan nan nan nan nan nan nan nan nan nan nan nan nan nan nan nan nan 42 41 47 52 86 79 74 47 68 69 68 65 69 69
nan nan 24 nan nan 23 26 nan 19 nan nan nan nan nan nan nan nan nan nan nan nan nan nan nan nan nan nan nan nan nan 44 42 40 47 49 84 71 67 68 49 43 52 65 52
30 nan nan nan nan nan nan nan nan 22 24 23 nan nan nan nan nan nan nan nan nan nan nan nan nan nan nan nan nan nan 42 43 43 40 55 71 73 73 68 57 61 53 60 67
nan 34 nan nan 47 29 nan nan 34 nan nan nan nan nan nan nan nan nan nan nan nan nan nan nan nan nan nan nan 34 35 33 34 35 43 45 46 44 41 38 39 51 59 58 52
nan 31 nan nan nan 11 27 22 11 31 32 nan nan nan nan nan nan nan nan nan nan nan nan nan nan nan nan nan nan 34 35 33 34 36 40 43 48 48 48 49 50 43 43 50
nan nan 22 nan nan 9 18 8 30 nan nan 34 25 nan 14 nan nan nan nan nan nan nan nan nan nan nan nan nan nan nan 38 nan nan 38 38 40 40 43 46 48 47 45 44 43
nan nan nan nan 7 nan nan nan nan nan nan nan nan nan nan nan nan nan nan nan nan nan nan nan nan nan nan nan nan nan nan nan nan nan nan nan 44 45 44 43 44 45 44 42
nan nan nan nan nan nan nan nan nan nan nan 15 nan nan nan nan nan nan nan nan nan nan 28 nan 48 nan nan nan nan nan nan nan nan nan nan nan 47 nan nan nan nan 44 43 43
nan nan nan nan nan nan nan nan nan nan nan nan nan nan nan 26 nan nan nan nan nan nan nan 15 49 47 nan nan nan nan nan nan nan nan nan nan nan nan nan nan nan nan nan 42
nan nan nan nan nan nan nan nan nan nan nan nan nan nan nan 13 nan nan nan 22 nan 9 30 42 46 51 39 37 38 nan nan nan nan nan nan nan nan nan nan nan nan nan nan 47
nan nan nan nan nan nan nan 11 nan nan nan nan nan nan 31 28 nan 20 45 nan 47 39 nan nan nan 35 46 nan nan nan nan nan nan nan nan nan nan nan nan nan nan nan nan 49
nan nan nan nan nan nan nan nan nan nan nan nan nan nan nan nan nan nan nan 38 nan 34 nan nan nan nan nan nan nan nan nan nan nan nan nan nan nan nan nan nan nan nan nan 51
nan nan 15 nan 7 nan nan nan 11 14 13 34 32 29 nan nan nan 18 12 nan nan nan nan nan nan nan nan nan nan nan nan nan nan nan nan nan nan nan nan nan nan nan 41 50
nan nan nan nan nan nan nan 30 16 nan 7 29 22 23 nan nan 37 nan nan nan nan nan nan nan nan nan nan nan nan nan nan nan nan nan nan nan nan nan nan nan nan 39 37 49
nan nan nan nan nan nan 22 17 11 nan 20 18 nan nan nan nan nan nan nan nan nan nan nan nan nan nan nan nan nan nan nan nan nan nan nan nan nan nan nan 39 40 37 39 47
15 12 17 nan nan nan 25 nan nan nan 18 20 nan nan nan nan nan nan nan nan nan nan nan nan nan nan nan nan nan nan nan nan nan nan nan nan nan nan nan 28 29 34 40 42
12 15 nan 16 15 11 nan nan nan nan nan nan nan nan nan nan nan nan nan nan nan nan nan nan nan nan nan nan nan nan nan nan nan nan nan nan nan nan 22 29 31 32 35 36
nan nan 10 nan nan nan nan nan nan nan nan nan nan nan nan nan nan nan nan nan nan nan nan nan nan nan nan nan nan nan nan nan nan nan nan nan 14 18 21 29 28 28 30 45
nan nan nan nan nan nan nan nan nan nan nan nan nan nan nan nan nan nan nan nan nan nan nan nan nan nan nan nan nan nan nan nan nan nan nan nan 12 24 23 28 32 34 46 45
nan nan nan nan nan nan nan nan nan nan nan nan nan nan nan nan nan nan nan nan nan nan nan nan nan nan nan nan nan nan nan nan nan nan nan nan nan 21 23 28 39 54 43 38
Wind_Direction
nan nan nan nan nan nan nan nan nan nan nan nan nan nan nan nan nan nan nan nan nan nan nan 248 nan nan nan nan 235 221 231 237 228 238 247 248 243 245 227 225 229 228 236 238
nan nan nan nan nan nan nan nan nan nan nan nan nan nan nan nan nan nan nan nan nan nan nan nan 255 nan nan nan nan nan 225 233 236 234 236 243 245 250 248 230 231 233 226 241
nan nan nan nan nan nan nan nan nan nan nan nan nan nan nan nan nan nan nan nan nan nan nan nan nan nan nan nan 247 nan 227 229 239 233 235 233 237 239 247 224 237 236 235 237
nan nan nan nan nan nan nan nan nan nan nan nan nan nan nan nan nan nan nan nan nan nan nan nan nan nan nan nan nan 256 nan nan nan 243 235 241 240 241 243 249 254 241 247 249
nan nan nan nan nan nan nan nan nan nan nan nan nan nan nan nan nan nan nan nan nan nan nan nan nan nan nan nan nan nan 263 238 238 nan 248 236 234 238 241 242 253 242 256 250
nan nan nan nan nan nan nan nan nan nan nan nan nan nan nan nan nan nan nan nan nan nan nan nan nan nan nan nan nan nan nan 254 247 240 243 247 245 242 239 244 241 244 238 256
nan nan nan nan nan nan nan nan nan nan nan nan nan nan nan nan nan nan nan nan nan nan nan nan nan nan nan nan nan nan 254 248 254 258 241 247 257 249 246 244 245 244 249 253
nan nan 241 nan nan 235 229 nan 263 nan nan nan nan nan nan nan nan nan nan nan nan nan nan nan nan nan nan nan nan nan 252 253 254 245 247 245 240 256 246 237 236 241 245 256
261 nan nan nan nan nan nan nan nan 238 236 242 nan nan nan nan nan nan nan nan nan nan nan nan nan nan nan nan nan nan 253 243 243 248 249 247 250 254 254 252 253 256 243 245
nan 269 nan nan 260 273 nan nan 232 nan nan nan nan nan nan nan nan nan nan nan nan nan nan nan nan nan nan nan 257 261 257 257 253 245 242 248 253 253 255 256 258 257 247 246
nan 267 nan nan nan 194 305 311 296 250 266 nan nan nan nan nan nan nan nan nan nan nan nan nan nan nan nan nan nan 253 259 256 255 255 254 249 248 249 249 250 250 252 256 251
nan nan 281 nan nan 161 202 235 252 nan nan 245 259 nan 191 nan nan nan nan nan nan nan nan nan nan nan nan nan nan nan 248 nan nan 254 251 252 253 250 249 247 248 250 250 251
nan nan nan nan 184 nan nan nan nan nan nan nan nan nan nan nan nan nan nan nan nan nan nan nan nan nan nan nan nan nan nan nan nan nan nan nan 246 248 250 249 250 248 247 245
nan nan nan nan nan nan nan nan nan nan nan 239 nan nan nan nan nan nan nan nan nan nan 242 nan 276 nan nan nan nan nan nan nan nan nan nan nan 247 nan nan nan nan 243 240 239
nan nan nan nan nan nan nan nan nan nan nan nan nan nan nan 234 nan nan nan nan nan nan nan 305 278 268 nan nan nan nan nan nan nan nan nan nan nan nan nan nan nan nan nan 240
nan nan nan nan nan nan nan nan nan nan nan nan nan nan nan 259 nan nan nan 280 nan 265 225 248 266 265 253 239 243 nan nan nan nan nan nan nan nan nan nan nan nan nan nan 239
nan nan nan nan nan nan nan 48 nan nan nan nan nan nan 200 203 nan 247 232 nan 229 248 nan nan nan 249 253 nan nan nan nan nan nan nan nan nan nan nan nan nan nan nan nan 237
nan nan nan nan nan nan nan nan nan nan nan nan nan nan nan nan nan nan nan 250 nan 237 nan nan nan nan nan nan nan nan nan nan nan nan nan nan nan nan nan nan nan nan nan 227
nan nan 312 nan 298 nan nan nan 208 237 262 259 232 229 nan nan nan 272 295 nan nan nan nan nan nan nan nan nan nan nan nan nan nan nan nan nan nan nan nan nan nan nan 237 216
nan nan nan nan nan nan nan 257 256 nan 298 251 242 231 nan nan 245 nan nan nan nan nan nan nan nan nan nan nan nan nan nan nan nan nan nan nan nan nan nan nan nan 231 240 213
nan nan nan nan nan nan 261 234 213 nan 265 231 nan nan nan nan nan nan nan nan nan nan nan nan nan nan nan nan nan nan nan nan nan nan nan nan nan nan nan 212 219 220 229 215
303 308 316 nan nan nan 268 nan nan nan 278 279 nan nan nan nan nan nan nan nan nan nan nan nan nan nan nan nan nan nan nan nan nan nan nan nan nan nan nan 189 206 212 216 212
250 276 nan 307 306 266 nan nan nan nan nan nan nan nan nan nan nan nan nan nan nan nan nan nan nan nan nan nan nan nan nan nan nan nan nan nan nan nan 193 199 191 201 210 196
nan nan 286 nan nan nan nan nan nan nan nan nan nan nan nan nan nan nan nan nan nan nan nan nan nan nan nan nan nan nan nan nan nan nan nan nan 202 183 187 185 184 198 188 169
nan nan nan nan nan nan nan nan nan nan nan nan nan nan nan nan nan nan nan nan nan nan nan nan nan nan nan nan nan nan nan nan nan nan nan nan 155 180 179 173 178 165 156 161
nan nan nan nan nan nan nan nan nan nan nan nan nan nan nan nan nan nan nan nan nan nan nan nan nan nan nan nan nan nan nan nan nan nan nan nan nan 175 182 164 158 169 156 174